This is the latest recevied weather packets stored in our database for station/object W3JGB. If no packets are shown the sender has not sent any weather packets the latest 10 day(s).
| Time | Temp. | Humidity | Pressure | Rain* | Wind** | Luminosity | Snow |
|---|---|---|---|---|---|---|---|
| 1777936304 | 21.11° C | 49% | 1006.2 hPa | 0 mm | - | 37 W/m² | - |
| 1777936000 | 21.67° C | 45% | 1006 hPa | 0 mm | - | 33 W/m² | - |
| 1777935699 | 22.22° C | 43% | 1006.1 hPa | 0 mm | - | 32 W/m² | - |
| 1777935398 | 22.78° C | 42% | 1006.1 hPa | 0 mm | - | 58 W/m² | - |
| 1777935093 | 22.78° C | 40% | 1005.9 hPa | 0 mm | - | 65 W/m² | - |
| 1777934790 | 22.78° C | 40% | 1005.9 hPa | 0 mm | - | 72 W/m² | - |
| 1777934487 | 23.33° C | 40% | 1005.9 hPa | 0 mm | - | 59 W/m² | - |
| 1777934184 | 23.33° C | 40% | 1005.8 hPa | 0 mm | - | 95 W/m² | - |
| 1777933880 | 22.78° C | 39% | 1006 hPa | 0 mm | - | 107 W/m² | - |
| 1777933577 | 23.33° C | 39% | 1006 hPa | 0 mm | - | 58 W/m² | - |
| 1777933274 | 23.33° C | 39% | 1005.9 hPa | 0 mm | - | 169 W/m² | - |
| 1777932971 | 23.33° C | 40% | 1006 hPa | 0 mm | - | 178 W/m² | - |
| 1777932668 | 23.33° C | 40% | 1006 hPa | 0 mm | - | 180 W/m² | - |
| 1777932364 | 23.33° C | 41% | 1005.7 hPa | 0 mm | - | 88 W/m² | - |
| 1777932062 | 22.78° C | 40% | 1005.8 hPa | 0 mm | - | 84 W/m² | - |
| 1777931758 | 22.78° C | 39% | 1005.9 hPa | 0 mm | - | 82 W/m² | - |
| 1777931456 | 23.33° C | 39% | 1005.9 hPa | 0 mm | - | 65 W/m² | - |
| 1777931151 | 23.89° C | 37% | 1006.1 hPa | 0 mm | - | 65 W/m² | - |
| 1777930848 | 23.89° C | 35% | 1005.9 hPa | 0 mm | - | 110 W/m² | - |
| 1777930544 | 23.89° C | 37% | 1005.9 hPa | 0 mm | - | 100 W/m² | - |
| 1777930242 | 24.44° C | 35% | 1006 hPa | 0 mm | - | 79 W/m² | - |
| 1777929937 | 25° C | 35% | 1005.9 hPa | 0 mm | - | 78 W/m² | - |
| 1777929635 | 25° C | 34% | 1005.7 hPa | 0 mm | - | 77 W/m² | - |
| 1777929332 | 25° C | 32% | 1006 hPa | 0 mm | - | 96 W/m² | - |
| 1777929029 | 25° C | 33% | 1006.1 hPa | 0 mm | - | 272 W/m² | - |
* Rain latest hour (hover to see other rain measurements)
** Current wind speed in m/s (hover to see current wind gust speed)